Погода в Тотьме

Россия / Вологодская область     59°58′24″N   42°45′31″E
темп.,
°C
ветер,
м/с
пор.,
м/с
влажн.,
%
обл.,
%
осадки,
мм/ч
давл.,
гПа
погр.,
м
5 марта, пт
пт500:00−14з23967 0.0 99839
03:00−14з259732 0.0 99993
06:00−13сз279692 0.1 1000210
09:00−13ссз369191 0.1 1002334
12:00−11сз358527 0.0 1003760
15:00−10сз358564 0.1 1005978
18:00−14сз2392100 0.1 100777
21:00−15зсз269697 0.1 1009166
6 марта, сб
сб600:00−18зсз239773 0.0 101031
03:00−20зсз239856 0.0 101262
06:00−21зсз239931 0.0 101232
09:00−18зсз259521 0.0 1013207
12:00−12з238664 0.0 1012498
15:00−11зюз358882 0.1 1011804
18:00−14юз2295100 0.1 101021
21:00−16юз259787 0.1 100990
7 марта, вс
вс700:00−17ю3610074 0.0 1006119
03:00−16ю399987 0.1 1004221
06:00−13ююв41194100 0.0 1000403
09:00−11ююв51194100 0.4 998643
12:00−9ююв51093100 0.9 996729
15:00−8юв5993100 1.4 994787
18:00−8вюв4995100 0.6 993590
21:00−9в4995100 1.1 993542
8 марта, пн
пн800:00−9в4995100 0.5 992520
03:00−11всв4995100 1.0 993479
06:00−12св4994100 0.5 993505
09:00−12св5993100 0.8 995576
12:00−11ссв4892100 0.3 997693
15:00−10ссв5891100 0.5 1000816
18:00−12ссв51092100 0.3 1002717
21:00−15с41092100 0.4 1005589
9 марта, вт
вт900:00−17с4994100 0.1 1007431
03:00−21с3997100 0.1 1009285
06:00−25ссз389796 0.0 1011214
09:00−24с379680 0.0 1012261
12:00−20ссз359480 0.0 1013408
15:00−18ссз359189 0.0 1014539
18:00−22ссз2596100 0.0 101587
21:00−26с259765 0.0 101796